Location: Kumla
(59.1265°N, 15.1401°E)
Time: 17:34:36
(UTC+01:00)

A-11 Canister half - Pass Details

Date: 10 December 2023
Orbit: 1512 x 1687 km, 47.2° (Epoch: 25 February)

Event Time Altitude Azimuth Distance (km) Brightness Sun altitude
Rises 01:02:42 0° 244° (WSW) 4,743 - -51.6°
Reaches altitude 10° 01:05:57 10° 237° (WSW) 3,783 - -51.4°
Maximum altitude 01:14:41 41° 172° (S) 2,214 - -50.9°
Exits shadow 01:23:12 12° 109° (ESE) 3,765 11.1 -50.3°
Drops below altitude 10° 01:23:42 10° 108° (ESE) 3,909 11.2 -50.3°
Sets 01:27:07 0° 101° (E) 4,914 11.9 -50.0°
